Volver al catálogo

OPS 9332

IDSCS 17

ActivoMilitarMEO
NORAD 2863·PAYLOAD·🇺🇸 United States

Lanzado Jul 1, 1967 desde Cape Canaveral Space Force Station

Loading…

Próximos Pases (próximas 24 horas)

TLE

ActualizadoSource: Space-Track

Época: Sep 14, 2026, 14:16 UTC

1 02863U 67066B   26257.59503443 -.00000109  00000-0  00000-0 0  9990
2 02863   3.0574  92.0858 0059885 247.9139 327.9568  1.09897498125702

Sigue OPS 9332 en tiempo real con AllMySat

Download on the App Store